Flag for Germany Weather past 2 weeks in Gera, Thuringia, Germany

Now
59 °F

Passing clouds.


Feels Like: 60 °F
Forecast: 53 / 67 °F
Wind: 3 mph from South

Location: Gera-Leumnitz

Current Time: Sep 20, 2014 at 6:51:44 AM

Latest Report: Sep 20, 2014 at 6:00 AM


Visibility: 14 mi

Pressure: 29.94 "Hg

Humidity: 95%

Dew point: 58 °F

Location of GeraLocation

Historic Weather in Gera — Graph

°F

Gera temperature yesterday

Maximum temperature yesterday: 74 °F (at 2:00 PM)
Minimum temperature yesterday: 58 °F (at 5:00 AM)
Average temperature yesterday: 63 °F

Past Weeks' High & Low Weather Summary

 TemperatureHumidityPressure
High78 °F (Sep 6, 3:00 PM)99% (Sep 5, 6:00 AM)30.15 "Hg (Sep 5, 6:00 AM)
Low52 °F (Sep 11, 4:00 AM)53% (Sep 6, 5:00 PM)29.85 "Hg (Sep 6, 5:00 PM)
Average61 °F85%30.00 "Hg
* Reported Sep 5 6:00 AM — Sep 20 6:00 AM, Gera, Weather by CustomWeather, © 2014

Note: Actual official high and low records may vary slightly from our data, if they occured in-between our weather recording intervals... More about our weather records

Advertising

Gera weather history for previous 24 hours

 ConditionsComfort  
Time TempWeatherWind HumidityBarometerVisibility
6:00 AM
Sep 20
59 °FPassing clouds.3 mph95%29.94 "Hg14 mi
5:00 AM59 °FPassing clouds.5 mph95%29.95 "Hg6 mi
4:00 AM60 °FOvercast.3 mph95%29.94 "Hg7 mi
3:00 AM59 °FOvercast.5 mph96%29.95 "Hg7 mi
2:00 AM59 °FOvercast.3 mph96%29.95 "Hg5 mi
1:00 AM60 °FOvercast.3 mph98%29.95 "Hg4 mi
12:00 AM60 °FOvercast.3 mph98%29.94 "Hg2 mi
11:00 PM
Sep 19
61 °FFog.2 mph96%29.94 "Hg3 mi
10:00 PM61 °FOvercast.2 mph97%29.94 "Hg3 mi
9:00 PM62 °FOvercast.1 mph96%29.94 "Hg25 mi
8:00 PM62 °FSprinkles. Overcast.2 mph93%29.92 "Hg22 mi
7:00 PM64 °FOvercast.2 mph91%29.91 "Hg11 mi
6:00 PM65 °FOvercast.3 mph91%29.90 "Hg7 mi
5:00 PM67 °FThunderstorms. Overcast.2 mph82%29.88 "Hg22 mi
4:00 PM64 °FThundershowers. Overcast.7 mph90%29.90 "Hg8 mi
3:00 PM73 °FOvercast.5 mph64%29.88 "Hg11 mi
2:00 PM74 °FOvercast.6 mph62%29.88 "Hg17 mi
1:00 PM71 °FPartly sunny.5 mph71%29.89 "Hg16 mi
12:00 PM69 °FPartly sunny.6 mph73%29.90 "Hg14 mi
11:00 AM67 °FScattered clouds.6 mph76%29.93 "Hg16 mi
10:00 AM63 °FPartly sunny.6 mph81%29.93 "Hg16 mi
9:00 AM60 °FPartly sunny.5 mph87%29.93 "Hg16 mi
8:00 AM60 °FOvercast.5 mph85%29.93 "Hg12 mi
7:00 AM58 °FOvercast.5 mph89%29.92 "Hg11 mi
6:00 AM59 °FOvercast.3 mph88%29.91 "Hg9 mi
Weather by CustomWeather, © 2014

See weather overviewHow to use our weather pages